Location: Herksen
(52.4316°N, 6.1319°E)
Time: 10:54:43
(UTC+00:00)

GRACE-FO 1 - Pass Details

Date: 15 May 2026
Orbit: 442 x 460 km, 89.0° (Epoch: 7 June)

Event Time Altitude Azimuth Distance (km) Brightness Sun altitude
Exits shadow 21:35:58 24° 182° (S) 1,011 5.7 -14.2°
Maximum altitude 21:37:59 85° 270° (W) 471 4.4 -14.4°
Drops below altitude 10° 21:41:31 10° 359° (N) 1,622 8.3 -14.6°
Sets 21:43:35 0° 0° (N) 2,502 9.4 -14.8°
